Regional Weather Roundup
Issued by NWS Charleston, WV

Home | Current Version | Previous Version | Text Only | Print | Product List | Glossary On
Versions: 1 2 3 4 5 6 7 8 9 10 11 12 13 14 15 16 17 18 19 20 21 22 23 24 25 26 27
000
ASUS41 KRLX 300910
RWRRLX
West Virginia Regional Weather Roundup
National Weather Service Charleston WV
500 AM EDT SAT JUL 30 2016

Note: "fair" indicates few or no clouds below 12,000 feet with no
significant weather and/or obstructions to visibility.

WVZ003-301000-
Northern Panhandle of West Virginia

CITY           SKY/WX    TMP DP  RH WIND       PRES   REMARKS
WHEELING       MOCLDY    70  66  87 CALM      29.94S
$$

WVZ009-301000-
Northwest West Virginia

CITY           SKY/WX    TMP DP  RH WIND       PRES   REMARKS
PARKERSBURG    CLOUDY    73  71  93 S7        29.95R
$$

WVZ006-301000-
Western West Virginia

CITY           SKY/WX    TMP DP  RH WIND       PRES   REMARKS
HUNTINGTON       N/A     71  69  93 CALM      29.93S
$$

WVZ015-301000-
West Central West Virginia

CITY           SKY/WX    TMP DP  RH WIND       PRES   REMARKS
CHARLESTON       N/A     70  68  93 CALM      29.95S
$$

WVZ022-031-301000-
North Central West Virginia

CITY           SKY/WX    TMP DP  RH WIND       PRES   REMARKS
CLARKSBURG       N/A     68  67  96 CALM      29.96R
MORGANTOWN       N/A     70  66  87 CALM      29.96F
$$

WVZ025-035-042-045-301000-
Southern West Virginia

CITY           SKY/WX    TMP DP  RH WIND       PRES   REMARKS
BECKLEY          N/A     65  63  93 S3        30.04R
LOGAN            N/A     68  66  94 CALM      29.98S
BLUEFIELD        N/A     64  62  93 W3        30.07R
LEWISBURG      FOG       64  64 100 CALM      30.04R VSB 3/4
$$

WVZ047-301000-
Northern Mountains of West Virginia

CITY           SKY/WX    TMP DP  RH WIND       PRES   REMARKS
ELKINS           N/A     65  63  93 CALM      30.01S FOG
$$

WVZ052-301000-
Eastern Panhandle of West Virginia

CITY           SKY/WX    TMP DP  RH WIND       PRES   REMARKS
MARTINSBURG      N/A     69  68  96 CALM      29.94R FOG
PETERSBURG     CLOUDY    70  70  98 CALM      29.96R FOG
$$




USA.gov is the U.S. government's official web portal to all federal, state and local government web resources and services.